Accueil
METAR-TAF:

METAR-TAF

Aéroports :

Payerne, Suisse

Aérodrome de Payerne

latitude: 46-49N, longitude: 006-57E, altitude: 490 m

Observation

Le bulletin a été fait il y a 20 minutes, à 10:50 UTC
Vent 5 kt de sud-ouest
Température 6°C
Humidité 93%
Pression 1015 hPa
Visibilité 10 km ou plus
Quelques nuages à une hauteur de 2000 ft
Ciel couvert à une hauteur de 2600 ft
pluie

METAR: LSMP 251050Z 22005KT 9999 RA FEW020 OVC026 06/05 Q1015 RMK BLU

Heure: 12:10 (11:10 UTC)


TAF: absent

Observations et prévisions météorologiques de plus de 4000 aéroports (messages METAR et TAF).

Les stations disponibles sont représentées par des disques jaunes et rouges sur la carte.

Passer la souris dessus pour voir le nom de la station.

Cliquer dessus pour voir les observations et prévisions météorologiques.

Pour changer de carte: cliquez sur les boutons verts avec une croix noire pour zoomer, sur le bouton vert avec un tiret pour effectuer un zoom arrière, ou sur les flèches vertes pour les cartes adjacentes.


METAR-TAF: